N2NET Weather Reports


Display with metric or nautical units.
time (UTC)temp
F
wind
direction
speed
MPH
gust
MPH
rain 1hr
in
rain 24hr
in
rain mn
in
humidity
%
barometer
mb
20260906161603 66 340 3.0 11.0 0.00 0.00 0.00 67 1017.0
20260906160104 66 359 2.0 7.0 0.00 0.00 0.00 68 1016.8
20260906154603 66 309 0.0 6.0 0.00 0.00 0.00 68 1016.8
20260906153117 67 3 3.0 7.0 0.00 0.00 0.00 66 1016.7
20260906151605 68 123 2.0 9.0 0.00 0.00 0.00 65 1016.8
20260906144606 66 301 3.0 11.0 0.00 0.00 0.00 67 1016.6
20260906143106 65 0 2.0 11.0 0.00 0.00 0.00 68 1016.4
20260906141604 64 44 2.0 11.0 0.00 0.00 0.00 68 1016.3
20260906140106 64 359 3.0 11.0 0.00 0.00 0.00 68 1016.3
20260906134617 65 125 2.0 14.0 0.00 0.00 0.00 66 1016.1
20260906133109 64 63 2.0 11.0 0.00 0.00 0.00 60 1016.0
20260906131604 63 141 1.0 7.0 0.00 0.00 0.00 22 1016.0
20260906130058 60 304 4.0 10.0 0.00 0.00 0.00 100 1016.1
20260906124606 58 0 0.0 2.0 0.00 0.00 0.00 100 1016.0
20260906123104 57 0 0.0 3.0 0.00 0.00 0.00 100 1016.0
20260906121610 56 0 0.0 2.0 0.00 0.00 0.00 100 1016.1
20260906120107 55 0 0.0 2.0 0.00 0.00 0.00 100 1015.8
20260906114614 54 0 0.0 1.0 0.00 0.00 0.00 100 1015.6
20260906113107 54 0 0.0 1.0 0.00 0.00 0.00 100 1015.5
20260906111606 54 307 0.0 0.0 0.00 0.00 0.00 100 1015.2
20260906110057 53 0 0.0 0.0 0.00 0.00 0.00 100 1015.0
20260906104603 53 0 0.0 0.0 0.00 0.00 0.00 100 1014.8
20260906103108 53 0 0.0 1.0 0.00 0.00 0.00 100 1014.7
20260906101558 53 0 0.0 0.0 0.00 0.00 0.00 100 1014.5
20260906100106 53 0 0.0 0.0 0.00 0.00 0.00 100 1014.4
20260906094608 53 0 0.0 0.0 0.00 0.00 0.00 100 1014.4
20260906093102 52 0 0.0 1.0 0.00 0.00 0.00 100 1014.3
20260906091604 52 0 0.0 0.0 0.00 0.00 0.00 100 1014.2
20260906090118 52 0 0.0 0.0 0.00 0.00 0.00 100 1014.0
20260906084610 52 0 0.0 0.0 0.00 0.00 0.00 100 1013.9
20260906083111 52 0 0.0 0.0 0.00 0.00 0.00 100 1013.7
20260906081601 53 0 0.0 1.0 0.00 0.00 0.00 100 1013.5
20260906080127 53 0 0.0 2.0 0.00 0.00 0.00 100 1013.8
20260906074610 54 307 0.0 0.0 0.00 0.00 0.00 100 1013.7
20260906073115 54 0 0.0 0.0 0.00 0.00 0.00 100 1013.7
20260906071603 55 0 1.0 3.0 0.00 0.00 0.00 100 1013.8
20260906070106 55 0 0.0 3.0 0.00 0.00 0.00 100 1013.7
20260906064558 56 0 0.0 0.0 0.00 0.00 0.00 100 1013.7
20260906063058 57 0 0.0 0.0 0.00 0.00 0.00 100 1013.7
20260906061607 57 0 0.0 2.0 0.00 0.00 0.00 100 1013.7
20260906054557 58 0 0.0 0.0 0.00 0.00 0.00 100 1014.1
20260906053101 58 0 0.0 0.0 0.00 0.00 0.00 100 1014.1
20260906051604 58 0 0.0 1.0 0.00 0.00 0.00 100 1014.2
20260906050112 58 225 0.0 1.0 0.00 0.00 0.00 100 1014.1
20260906044602 58 0 0.0 1.0 0.00 0.00 0.00 100 1014.1
20260906043103 58 0 0.0 1.0 0.00 0.00 0.00 100 1014.1
20260906041605 57 0 0.0 0.0 0.00 0.00 0.00 100 1014.1
20260906040105 57 0 0.0 0.0 0.00 0.00 0.00 100 1014.2
20260906034638 58 0 0.0 0.0 0.00 0.00 0.00 100 1014.2
20260906033102 58 0 0.0 0.0 0.00 0.00 0.00 100 1014.1
20260906031605 58 0 0.0 0.0 0.00 0.00 0.00 100 1013.9
20260906030105 59 0 0.0 0.0 0.00 0.00 0.00 100 1013.8
20260906024601 59 0 0.0 0.0 0.00 0.00 0.00 100 1013.9
20260906023105 59 0 0.0 0.0 0.00 0.00 0.00 100 1013.8
20260906021611 59 0 0.0 0.0 0.00 0.00 0.00 100 1013.8
20260906020107 59 0 0.0 0.0 0.00 0.00 0.00 100 1013.8
20260906014556 59 0 0.0 0.0 0.00 0.00 0.00 100 1013.6
20260906013106 59 0 0.0 0.0 0.00 0.00 0.00 100 1013.5
20260906011604 60 0 0.0 0.0 0.00 0.00 0.00 100 1013.4
20260906010105 60 0 0.0 0.0 0.00 0.00 0.00 100 1013.4
20260906004559 61 0 0.0 3.0 0.00 0.00 0.00 100 1013.4
20260906003101 61 0 0.0 0.0 0.00 0.00 0.00 100 1013.2
20260906001604 62 0 0.0 0.0 0.00 0.00 0.00 100 1013.0
20260906000109 63 0 0.0 0.0 0.00 0.00 0.00 100 1013.0
20260905234621 63 0 0.0 0.0 0.00 0.00 0.00 21 1013.0
20260905233105 64 0 0.0 0.0 0.00 0.00 0.00 44 1013.0
20260905231607 65 0 0.0 3.0 0.00 0.00 0.00 58 1012.9
20260905230110 65 0 0.0 0.0 0.00 0.00 0.00 65 1012.7
20260905224621 66 0 0.0 0.0 0.00 0.00 0.00 68 1012.7
20260905223107 66 0 0.0 0.0 0.00 0.00 0.00 72 1012.7
20260905221605 67 209 0.0 3.0 0.00 0.00 0.00 74 1012.6
20260905220118 68 0 0.0 6.0 0.00 0.00 0.00 70 1012.7
20260905214609 69 143 3.0 10.0 0.00 0.00 0.00 69 1012.7
20260905213105 69 17 2.0 9.0 0.00 0.00 0.00 69 1012.2
20260905211559 70 0 0.0 0.0 0.00 0.00 0.00 72 1012.0
20260905210109 70 0 0.0 1.0 0.00 0.00 0.00 69 1011.9
20260905204600 71 0 2.0 8.0 0.00 0.00 0.00 66 1011.9
20260905203114 71 307 4.0 9.0 0.00 0.00 0.00 64 1011.5
20260905201559 71 75 1.0 7.0 0.00 0.00 0.00 65 1011.5
20260905200108 71 336 0.0 2.0 0.00 0.00 0.00 68 1011.7
20260905194600 71 0 0.0 0.0 0.00 0.00 0.00 71 1011.6
20260905193103 71 0 0.0 4.0 0.00 0.00 0.00 70 1011.6
20260905191609 72 120 3.0 7.0 0.00 0.00 0.00 64 1011.5
20260905190103 74 0 0.0 4.0 0.00 0.00 0.00 62 1011.4
20260905184611 74 113 1.0 3.0 0.00 0.00 0.00 60 1011.3
20260905183102 72 0 0.0 0.0 0.00 0.00 0.00 68 1011.5
20260905181612 73 0 0.0 1.0 0.00 0.00 0.00 64 1011.6
20260905180105 74 0 0.0 5.0 0.00 0.00 0.00 61 1011.6
20260905174604 74 94 2.0 4.0 0.00 0.00 0.00 62 1011.5
20260905173106 72 0 0.0 3.0 0.00 0.00 0.00 66 1011.7
20260905171636 72 0 0.0 2.0 0.00 0.00 0.00 64 1011.7
20260905170106 70 149 0.0 4.0 0.00 0.00 0.00 66 1011.9
20260905164602 71 305 0.0 4.0 0.00 0.00 0.00 63 1011.8
20260905163105 72 0 0.0 1.0 0.00 0.00 0.00 62 1011.9